Regional Weather Roundup
Issued by NWS

Home | Current Version | Previous Version | Text Only | Print | Product List | Glossary On
Versions: 1 2 3 4 5 6 7 8 9 10 11 12 13 14 15 16 17 18 19 20 21 22 23 24 25 26 27 28 29 30 31 32 33 34 35 36 37 38 39 40 41 42 43 44 45 46 47 48 49 50
000
ASUS44 KFWD 280501
RWRTX
NORTH TEXAS HOURLY WEATHER ROUNDUP
NATIONAL WEATHER SERVICE FORT WORTH TX
1200 AM CDT MON JUL 28 2014

NOTE: "FAIR" INDICATES FEW OR NO CLOUDS BELOW 12,000 FEET WITH NO
SIGNIFICANT WEATHER AND/OR OBSTRUCTIONS TO VISIBILITY.

TXZ118-119-280600-
DALLAS/FORT WORTH METROPLEX

CITY           SKY/WX    TMP DP  RH WIND       PRES   REMARKS
DFW AIRPORT    CLEAR     89  68  49 S10       30.01R HX  93
DALLAS LOVE    CLEAR     89  68  49 S10       30.01S HX  93
FTW MEACHAM    CLEAR     89  65  44 S8        30.02R HX  91
DAL-EXECUTIVE  CLEAR     88  68  51 S5        30.02R HX  91
FTW-ALLIANCE   CLEAR     86  64  47 S7        30.01R
FTW-NAS-JRB    CLEAR     90  62  39 S9        30.06R HX  90
FTW-SPINKS     CLEAR     85  64  49 S5        30.04S
ARLINGTON      CLEAR     88  68  51 S7        30.02R HX  91
GRAND PRAIRIE  CLEAR     88  66  48 S7        30.03S HX  90
ADDISON        CLEAR     90  66  45 S8        30.04R HX  92
MESQUITE       CLEAR     80  71  73 S6        30.02S
LANCASTER      CLEAR     84  67  57 S3        30.03R
$$

TXZ091>094-102>105-117-120-121-131>134-280600-
NORTH CENTRAL TEXAS

CITY           SKY/WX    TMP DP  RH WIND       PRES   REMARKS
SHRMAN/DENISON PTCLDY    87  69  55 NE5       30.05R HX  90
GAINESVILLE    MOCLDY    89  67  49 N7        30.06R HX  91
BOWIE          PTCLDY    80  70  72 CALM      30.05R
BRIDGEPORT     CLEAR     85  62  46 S7        30.04S
DECATUR        CLEAR     88  63  43 S12       30.04S
DENTON         CLEAR     83  68  60 S7        30.02R
MCKINNEY       CLEAR     86  71  60 S9        30.02R HX  91
GREENVILLE     CLEAR     81  70  69 S5        30.02S
ROCKWALL       CLEAR     85  71  64 S8        30.01R HX  90
TERRELL        CLEAR     83  73  72 SE5       30.02S
WAXAHACHIE     CLEAR     83  66  56 S5        30.04R
CLEBURNE       CLEAR     84  68  58 SE8       30.05R
GRANBURY       CLEAR     89  65  43 SE6       30.04R HX  91
$$

TXZ083>090-098>101-113>116-127>130-139>142-154-155-280600-
WESTERN NORTH TEXAS

CITY           SKY/WX    TMP DP  RH WIND       PRES   REMARKS
WICHITA FALLS  CLOUDY    89  73  59 E17       30.05R HX  97
WF-KICKAPOO    PTCLDY    90  63  40 NE8       30.05R HX  91
VERNON         CLEAR     87  69  55 NE12      30.09R HX  91
ABILENE        CLEAR     86  62  44 SE10      30.07R
ABILENE-DYESS  CLEAR     85  64  48 S8        30.06R
BRECKENRIDGE   CLEAR     88  60  39 SE8       30.04R
GRAHAM         CLEAR     87  63  44 SE6       30.02S
MINERAL WELLS  CLEAR     85  65  51 S8        30.03R
STEPHENVILLE   CLEAR     83  64  52 S6        30.09R
COMANCHE       CLEAR     83  62  49 S5        30.07R
BROWNWOOD      MOCLDY    84  63  48 SE7       30.06S
COLEMAN        CLEAR     83  60  45 S6        30.07S
BRADY          CLEAR     82  61  47 SE6       30.08S
$$

TXZ143>147-156>162-174-175-280600-
CENTRAL TEXAS

CITY           SKY/WX    TMP DP  RH WIND       PRES   REMARKS
WACO           CLEAR     87  69  54 S14       30.03R HX  91
WACO-MCGREGOR  CLEAR     84  66  54 S10       30.05R
HILLSBORO      CLEAR     85  67  56 SE7       30.03S
CORSICANA      CLEAR     83  71  67 S8        30.03S
MEXIA          CLEAR     80  72  76 S3        30.03S
HEARNE         CLEAR    N/A N/A N/A SE5       30.04S
CAMERON        CLEAR     85  73  67 S10G18    30.04S HX  91
TEMPLE         CLEAR     84  66  54 SE15      30.05R
KILLEEN        CLEAR     82  68  61 SE10      30.05R
KILLEEN-SKYLRK CLEAR     84  66  54 S13       30.05R
FORT HOOD      CLEAR     87  70  56 SE8       30.05R HX  92
GATESVILLE     CLEAR     84  70  61 SE8       30.06S
HAMILTON       CLEAR     83  64  52 S8        30.07R
LAMPASAS       CLEAR     82  67  60 CALM      30.05S
$$

TXZ095>097-106>112-122>126-135>138-148>153-164>167-280600-
EAST TEXAS

CITY           SKY/WX    TMP DP  RH WIND       PRES   REMARKS
PARIS          MOCLDY    84  72  65 N6        30.04R
SULPHUR SPRNGS CLEAR     83  73  70 S3        30.04S
CLARKSVILLE    MOCLDY    87  73  63 CALM      30.04R HX  95
MOUNT PLEASANT PTCLDY    81  73  76 CALM      30.03F
GILMER         CLEAR     82  73  74 CALM      30.04S
MINEOLA        CLEAR     84  73  70 S5        30.03S HX  91
TYLER          CLEAR     81  73  76 S5        30.03S
LONGVIEW       CLEAR     80  73  79 S3        30.02R
MARSHALL       PTCLDY    80  76  87 CALM      30.04S
ATHENS         CLEAR     77  73  88 CALM      30.02S
JACKSONVILLE   CLEAR     83  72  70 S6        30.06S
HENDERSON      CLEAR     79  74  84 CALM      30.04S
NACOGDOCHES    CLEAR     79  73  83 CALM      30.04S
LUFKIN         CLEAR     83  75  77 S5        30.04S HX  90
$$

SUPPLEMENTAL OBSERVATIONS (CENTRAL)

CITY           SKY/WX    TMP DP  RH WIND       PRES   REMARKS
$$

SUPPLEMENTAL OBSERVATIONS (WEST)

CITY           SKY/WX    TMP DP  RH WIND       PRES   REMARKS
$$

SUPPLEMENTAL OBSERVATIONS (EAST)

CITY           SKY/WX    TMP DP  RH WIND       PRES   REMARKS
$$

SUPPLEMENTAL OBSERVATIONS ARE A COLLECTION OF AUTOMATED INSTRUMENTS
THAT ARE MAINTAINED BY A VARIETY OF FEDERAL AND STATE AGENCIES.
CERTAIN ELEMENTS...SUCH AS HUMIDITY VALUES AND SUSTAINED WIND
SPEEDS...MAY BE APPROXIMATED.




USA.gov is the U.S. government's official web portal to all federal, state and local government web resources and services.